{"data":{"norad_id":63726,"intl_designator":"2025-088C","name":"KUIPER-00010","alt_names":[],"object_type":"PAYLOAD","status":"ACTIVE","operator":null,"country":"US","launch_date":"2025-04-28","launch_site_code":"AFETR","launch_vehicle":null,"mission":null,"orbit_class":"UNKNOWN","rcs_meters":null,"size_class":null,"mass_kg":null,"dimensions":null,"purposes":[],"wikipedia_slug":null,"has_3d_model":false,"image_url":null,"decayed_at":null,"tle_current":{"epoch":"2026-09-21T09:49:09.899040Z","epoch_age_seconds":126204,"freshness":"FRESH","line1":"1 63726U 25088C   26264.40914235  .00000439  00000+0  86648-4 0  9996","line2":"2 63726  51.9026 297.6498 0000378  61.8745 298.2255 14.79926358 76711","mean_motion":14.79926358,"eccentricity":3.78e-5,"inclination_deg":51.9026,"raan_deg":297.6498,"arg_perigee_deg":61.8745,"mean_anomaly_deg":298.2255,"bstar":8.6648e-5,"rev_number":7671,"period_min":97.302138867642,"perigee_km":629.29170558358,"apogee_km":629.82148721946,"semimajor_km":7007.6935964015,"source":"CELESTRAK","updated_at":"2026-09-22T09:00:29.315473Z"}}}